Grand Canyon, AZ

2:10 AM MST on September 30, 2016 (GMT -0700)
Grand Canyon National Park

Weather History for KGCN - May, 2014

Change the Weather History Date:

Thursday, May 29, 2014

  Actual Average Record
Temperature  
Mean Temperature 59 °F -  
Max Temperature 72 °F 75 °F 89 °F (2000)
Min Temperature 45 °F 33 °F 24 °F (1980)
Degree Days  
Heating Degree Days 6    
Growing Degree Days 9 (Base 50)    
Moisture  
Dew Point 31 °F    
Average Humidity 38    
Maximum Humidity 68    
Minimum Humidity 22    
Precipitation  
Precipitation 0.00 in - - ()
Sea Level Pressure  
Sea Level Pressure 29.93 in    
Wind  
Wind Speed 4 mph (SSE)    
Max Wind Speed 14 mph    
Max Gust Speed 18 mph    
Visibility 10 miles    
Events      
Averages and records for this station are not official NWS values.
T = Trace of Precipitation, MM = Missing Value Source: NWS Daily Summary

Daily Weather History Graph

Daily Weather History Graph

Search for Another Location

Airport or City:

Trip Planner

Search our weather history database for the weather conditions in past years. The results will help you decide how hot, cold, wet, or windy it might be!

Date:

Astronomy

May. 29, 2014 Rise Set
Actual Time 5:14 AM MST 7:37 PM MST
Civil Twilight 4:44 AM MST 8:07 PM MST
Nautical Twilight 4:08 AM MST 8:43 PM MST
Astronomical Twilight 3:28 AM MST 9:23 PM MST
Moon 6:09 AM MST (5/29) 8:32 PM MST (5/29)
Length of Visible Light 15h 22m
Length of Day
14h 23m
New Moon, 1% of the Moon is Illuminated
May 29
New Moon
Jun 5
First Quarter
Jun 12
Full
Jun 19
Last Quarter
Jun 27
New

Hourly Weather History & Observations

Time (MST) Temp. Dew Point Humidity Pressure Visibility Wind Dir Wind Speed Gust Speed Precip Events Conditions
12:54 AM 50.0 °F 24.1 °F 36% 29.85 in 10.0 mi Calm Calm - N/A   Clear
1:54 AM 53.1 °F 24.1 °F 32% 29.82 in 10.0 mi SW 3.5 mph - N/A   Clear
2:54 AM 52.0 °F 25.0 °F 35% 29.82 in 10.0 mi NE 3.5 mph - N/A   Clear
3:54 AM 53.1 °F 25.0 °F 34% 29.84 in 10.0 mi ENE 5.8 mph - N/A   Clear
4:54 AM 50.0 °F 25.0 °F 38% 29.86 in 10.0 mi Calm Calm - N/A   Partly Cloudy
5:54 AM 48.0 °F 25.0 °F 41% 29.88 in 10.0 mi Calm Calm - N/A   Clear
6:54 AM 53.1 °F 28.9 °F 40% 29.90 in 10.0 mi Calm Calm - N/A   Clear
7:54 AM 61.0 °F 25.0 °F 25% 29.91 in 10.0 mi ESE 5.8 mph - N/A   Clear
8:54 AM 64.9 °F 25.0 °F 22% 29.93 in 10.0 mi South 6.9 mph - N/A   Clear
9:54 AM 66.9 °F 27.0 °F 22% 29.96 in 10.0 mi SSW 11.5 mph - N/A   Clear
10:54 AM 68.0 °F 30.0 °F 24% 29.98 in 10.0 mi SSW 9.2 mph 18.4 mph N/A   Mostly Cloudy
11:54 AM 69.1 °F 30.0 °F 23% 29.98 in 10.0 mi SSW 13.8 mph - N/A   Scattered Clouds
12:54 PM 64.9 °F 37.9 °F 37% 30.01 in 10.0 mi South 11.5 mph - N/A   Mostly Cloudy
3:54 PM 72.0 °F 35.1 °F 26% 29.94 in 10.0 mi SE 13.8 mph - N/A   Clear
4:54 PM 71.1 °F 37.0 °F 29% 29.95 in 10.0 mi SSE 9.2 mph - N/A   Clear
5:54 PM 69.1 °F 37.9 °F 32% 29.95 in 10.0 mi SE 4.6 mph - N/A   Partly Cloudy
6:54 PM 66.9 °F 37.9 °F 34% 29.95 in 10.0 mi SE 3.5 mph - N/A   Mostly Cloudy
7:54 PM 64.0 °F 41.0 °F 43% 29.93 in 10.0 mi SE 8.1 mph - 0.00 in   Mostly Cloudy
8:54 PM 60.1 °F 42.1 °F 51% 29.94 in 10.0 mi East 3.5 mph - N/A   Clear
9:54 PM 48.0 °F 37.0 °F 66% 30.00 in 10.0 mi Calm Calm - N/A   Clear
10:54 PM 46.9 °F 37.0 °F 68% 30.00 in 10.0 mi Calm Calm - N/A   Clear
11:54 PM 45.0 °F 35.1 °F 68% 30.00 in 10.0 mi Calm Calm - N/A   Clear